User: anonymous   Login
Location: Fort Wayne
(41.1310°N, 85.1290°W)
Time: 12:10:25
(UTC-04:00)
Language:

COSMOS 2428 - Orbit

View from above orbital plane
View from above orbital plane
View from above satellite
View from above satellite

Ground track
Ground track

The orbit data is extracted from the following two-line orbital elements,

1 31792U 07029A   16126.40440234  .00000137  00000-0  10000-3 0  9992
2 31792  70.9461 187.9665 0007088 182.9875 306.4359 14.12392017456494
Epoch (UTC): 05 May 2016 09:42:20
Eccentricity: 0.0007088
inclination: 70.9461°
perigee height: 846 km
apogee height: 856 km
right ascension of ascending node: 187.9665°
argument of perigee: 182.9875°
revolutions per day: 14.12392017
mean anomaly at epoch: 306.4359°
orbit number at epoch: 45649

The dashed part of the orbit path shows where the satellite is in the earth's shadow,  

DLR